Regional Weather Roundup
Issued by NWS

Home | Current Version | Previous Version | Graphics & Text | Print | Product List | Glossary On
Versions: 1 2 3 4 5 6 7 8 9 10 11 12 13 14 15 16 17 18 19 20 21 22 23 24 25 26 27 28 29 30 31 32 33 34 35 36 37 38 39 40 41 42 43 44 45 46 47 48 49 50
000
ASUS43 KBIS 280220
RWRND

NORTH DAKOTA REGIONAL WEATHER ROUNDUP
NATIONAL WEATHER SERVICE BISMARCK ND
900 PM CDT WED AUG 27 2014

NOTE: "FAIR" INDICATES FEW OR NO CLOUDS BELOW 12,000 FEET WITH NO
SIGNIFICANT WEATHER AND/OR OBSTRUCTIONS TO VISIBILITY.


NDZ001>003-009>011-017-280300-
NORTHWEST NORTH DAKOTA

CITY           SKY/WX    TMP DP  RH WIND       PRES   REMARKS
WILLISTON      CLEAR     75  53  46 S9        29.94F
MINOT          CLEAR     67  57  70 SE7       29.99S
MINOT AFB      CLEAR     65  61  84 S7        29.98S
$$

NDZ018>021-031>035-040>046-280300-
SOUTHWEST NORTH DAKOTA

CITY           SKY/WX    TMP DP  RH WIND       PRES   REMARKS
BISMARCK       PTCLDY    68  62  81 S6        30.04S
DICKINSON      MOCLDY    64  56  75 SE8       30.02R
GARRISON         N/A     65  60  84 S6        30.01R
HETTINGER ARPT MOCLDY    65  61  87 SE7       30.06R
$$

NDZ004>008-012>016-024-026-027-054-280300-
NORTHEAST NORTH DAKOTA

CITY           SKY/WX    TMP DP  RH WIND       PRES   REMARKS
GRAND FORKS    CLEAR     65  58  78 SE5       30.06S
GRND FRKS AFB  CLEAR     64  61  89 S7        30.07S
DEVILS LAKE    CLEAR     66  55  68 S8        30.04R
$$

NDZ022-023-025-028>030-036>039-047>053-280300-
SOUTHEAST NORTH DAKOTA

CITY           SKY/WX    TMP DP  RH WIND       PRES   REMARKS
FARGO          CLEAR     63  59  87 E6        30.07S
JAMESTOWN      CLOUDY    67  61  81 SE6       30.06R
$$



USA.gov is the U.S. government's official web portal to all federal, state and local government web resources and services.